Temperature
24 24 23 23 20 21 24 25 25 26 26 27 27 26 24 23 23 21 21 20 20 20 20 20 20 20 20 20 20 20 20 20 20 20 20 20 20 20 20 20 20 20 20 20 20 20 20 20 19
24 24 24 23 20 22 24 25 26 27 27 27 26 25 24 22 22 21 20 20 21 21 20 20 20 20 20 20 20 20 20 19 19 20 20 20 20 20 20 20 20 20 20 20 20 20 19 19 19
25 24 24 21 22 22 25 26 27 28 28 28 26 25 24 22 22 21 21 20 21 21 20 20 20 20 20 20 20 20 20 19 19 19 20 20 20 20 20 20 20 20 20 20 19 19 19 19 19
25 24 24 22 24 25 26 26 27 28 28 27 25 24 23 23 22 22 21 21 21 21 20 20 20 20 20 20 20 20 19 19 19 19 19 19 19 19 20 20 20 20 19 19 19 19 19 19 19
25 25 22 23 25 26 27 28 28 27 27 25 24 22 22 22 22 22 21 21 21 21 21 21 20 20 20 20 20 19 19 19 19 19 19 19 19 19 19 19 19 19 19 19 19 19 19 19 19
26 23 22 23 25 27 27 28 28 27 25 25 24 23 22 22 22 21 21 21 21 21 21 21 21 20 20 20 20 19 19 19 19 19 19 19 19 19 19 19 19 19 19 19 19 19 19 19 19
25 22 23 23 24 25 27 28 28 27 26 26 25 22 22 22 22 22 21 22 21 21 21 21 21 21 20 20 20 19 19 19 19 19 19 19 19 19 19 19 19 18 18 19 19 19 19 19 19
26 22 23 23 23 24 26 28 28 27 26 26 25 23 22 22 22 22 22 22 22 21 21 21 21 21 20 20 20 19 19 19 19 19 19 19 19 19 19 19 19 18 18 18 19 19 19 19 19
26 21 22 22 23 23 25 26 27 27 26 26 26 25 24 23 23 22 21 21 21 21 21 21 21 21 20 20 20 19 19 19 19 19 19 19 19 19 19 19 19 18 18 19 19 19 19 19 19
25 21 23 23 23 23 25 26 26 25 25 25 25 24 24 23 23 22 22 22 22 22 21 21 21 21 20 20 20 19 19 19 19 19 19 19 19 19 18 18 18 19 19 19 19 19 19 19 19
25 23 23 23 25 25 25 25 26 25 24 24 24 24 23 23 23 23 23 23 23 23 22 22 21 21 21 20 20 20 19 19 19 19 19 19 18 18 18 18 19 19 19 19 19 19 18 18 18
26 25 24 25 26 26 26 25 25 25 25 25 25 25 24 24 23 23 23 23 23 23 22 22 22 21 21 21 20 20 20 19 19 19 19 19 19 19 19 18 18 19 19 19 19 18 18 18 18
25 25 26 26 26 26 26 25 24 24 24 25 25 24 24 23 23 23 23 23 23 23 23 22 22 22 21 21 21 20 20 20 19 19 19 19 19 19 19 18 18 18 18 18 18 18 18 18 18
26 26 26 26 25 25 24 23 23 23 24 24 24 23 23 23 23 23 23 22 22 22 22 22 22 22 21 21 21 21 20 20 20 19 19 19 18 19 18 18 18 18 18 19 18 18 18 18 18
27 26 24 23 23 22 23 21 20 21 23 23 23 22 22 22 22 21 21 21 21 21 21 21 21 21 22 22 21 21 21 20 20 20 19 19 18 18 18 18 18 18 18 18 18 18 18 18 18
25 24 22 22 22 22 22 20 20 22 22 22 22 21 21 21 20 20 20 20 20 21 21 21 21 20 21 21 21 21 21 21 20 20 19 19 19 18 18 18 18 18 18 18 18 18 18 18 18
22 22 22 22 21 21 21 20 20 21 22 21 21 20 20 20 19 19 20 20 20 20 20 20 20 20 20 20 21 21 21 21 21 20 20 19 19 19 18 18 19 19 18 18 18 18 18 18 18
21 21 21 21 21 20 20 19 19 20 20 19 18 18 18 18 18 19 19 19 19 19 19 19 20 20 20 20 20 20 20 20 20 20 20 20 19 19 18 18 19 19 18 18 18 18 18 18 18
20 20 19 20 20 20 19 18 17 17 17 16 16 16 16 16 17 18 18 19 19 19 19 19 19 19 20 20 20 20 20 20 20 20 20 20 19 19 19 19 19 19 19 18 18 18 18 18 18
19 18 18 19 20 21 18 16 16 16 15 14 14 14 14 15 16 16 17 18 18 18 18 18 19 19 19 19 19 19 20 20 20 20 20 19 19 19 19 18 18 18 18 18 18 18 18 18 18
19 18 18 19 18 19 18 15 14 14 14 13 13 13 13 13 14 15 16 16 17 17 17 17 18 18 19 19 19 19 19 19 19 19 19 19 18 18 18 18 18 18 18 18 18 18 18 18 17
17 18 19 19 17 16 17 14 12 13 13 13 12 12 12 12 13 14 14 15 15 16 16 16 17 17 18 18 19 19 19 19 19 19 18 18 18 18 18 17 17 17 17 17 17 17 17 17 17
17 18 17 18 17 15 15 13 12 12 12 12 12 12 12 12 12 13 13 14 14 15 15 15 16 16 17 17 18 18 19 19 19 19 18 18 17 17 17 17 17 17 17 17 17 17 17 17 17
17 16 16 14 13 14 14 13 12 11 11 11 12 12 12 12 12 13 13 13 14 14 14 14 15 15 15 16 16 17 18 18 18 18 18 18 17 17 17 16 16 16 16 16 16 16 16 16 16
14 13 13 13 12 13 13 12 11 12 12 11 11 11 11 11 11 12 12 13 13 13 13 13 14 14 14 15 15 15 16 16 17 17 17 17 16 16 16 16 16 15 15 16 16 16 16 16 16
14 13 12 12 13 13 13 12 11 12 12 11 11 11 11 11 11 12 12 12 12 12 12 13 13 13 13 14 14 14 15 15 15 15 15 15 15 15 15 15 15 15 15 15 15 15 15 15 15
14 13 13 12 13 12 12 12 12 12 12 11 11 11 11 11 11 11 12 12 12 12 12 12 12 13 13 13 13 13 14 14 14 14 14 14 14 14 14 14 14 14 14 14 14 14 14 15 15
14 13 11 11 11 11 12 12 10 10 10 11 10 10 10 11 11 11 11 12 12 12 12 12 12 12 12 13 13 13 13 13 13 13 14 14 14 14 14 14 14 14 14 14 14 14 14 14 14
13 12 11 10 10 10 11 11 11 10 10 10 10 10 11 11 11 11 12 12 12 12 12 12 12 12 12 12 13 13 13 13 13 13 13 13 13 13 13 13 13 13 13 13 13 13 13 14 14
13 12 11 10 10 10 10 11 12 10 10 10 10 11 12 12 12 12 12 12 12 12 12 12 12 12 12 13 13 13 13 13 13 13 13 13 13 13 13 13 13 13 13 13 14 14 14 14 14
Wind_Speed
8 3 4 3 6 6 4 2 4 7 6 5 8 11 9 6 3 5 6 15 17 15 16 18 18 18 17 17 16 15 14 14 13 13 12 12 12 11 10 10 10 10 9 8 8 8 8 9 8
4 1 3 4 6 5 1 2 5 3 7 10 9 8 7 5 5 9 8 16 19 17 17 17 18 18 17 17 16 16 15 14 13 13 12 11 11 11 10 10 10 9 9 8 8 7 8 7 7
3 1 3 4 4 6 4 4 5 3 5 7 6 6 6 5 7 6 12 19 18 16 16 17 19 17 17 16 16 15 15 14 14 13 12 11 11 10 10 10 10 9 9 8 7 7 7 7 6
1 3 4 4 4 4 6 5 4 3 5 7 7 6 5 3 6 11 20 19 18 14 16 18 18 17 16 15 15 15 14 14 14 13 12 11 10 10 9 9 9 9 9 8 7 6 7 7 6
3 4 6 4 2 2 1 2 4 7 6 8 9 6 4 4 15 22 20 19 17 14 16 17 18 17 16 15 14 14 14 14 14 13 12 11 11 10 10 9 9 8 8 8 7 6 6 6 6
5 5 5 3 4 3 4 5 9 12 10 9 9 7 2 6 17 20 19 17 17 17 16 17 19 17 16 15 14 14 14 14 14 13 12 11 11 11 10 10 8 7 6 6 6 5 6 5 5
4 4 2 2 4 6 5 6 7 8 8 6 7 7 5 6 13 17 17 16 16 15 15 15 17 17 16 16 15 15 15 15 15 14 13 12 11 11 11 11 9 7 6 5 4 4 4 4 4
5 4 4 4 4 5 6 6 8 9 7 6 6 8 7 8 11 14 16 15 15 13 13 13 15 16 16 16 16 16 15 15 15 15 14 13 12 12 12 12 10 8 7 5 4 4 3 3 3
5 5 3 2 3 5 6 6 7 7 8 6 4 6 9 13 13 13 12 11 12 13 11 12 12 14 15 15 16 17 17 16 16 15 15 14 12 12 13 12 12 10 8 7 6 5 5 4 4
5 4 3 3 2 3 6 4 4 5 8 6 6 6 11 13 13 14 15 16 16 15 14 13 13 12 13 14 14 14 15 15 15 15 15 14 13 13 13 13 13 12 10 8 7 7 7 6 5
3 6 5 3 3 1 2 4 3 6 5 3 7 10 11 11 12 13 15 17 19 18 17 16 15 13 13 10 11 11 12 13 14 16 16 14 13 12 11 10 12 11 11 8 7 7 7 7 6
3 4 6 6 4 2 2 2 3 3 1 3 8 11 10 10 10 11 12 13 13 16 18 18 17 14 13 12 10 11 9 10 10 14 16 13 8 7 8 8 10 10 9 8 8 6 8 9 9
2 1 2 4 5 3 1 3 4 6 8 6 6 7 7 5 3 1 3 5 7 12 15 17 18 17 15 12 9 10 9 10 13 14 16 15 8 6 6 7 9 10 10 8 7 6 6 7 8
4 3 3 2 2 5 5 6 6 7 9 10 10 7 5 4 4 6 6 4 2 1 4 9 15 17 16 14 12 11 11 13 13 13 16 18 13 8 7 6 7 9 11 11 8 7 5 4 4
1 2 4 6 4 3 6 8 6 7 8 11 11 10 10 9 9 9 9 8 7 6 5 3 5 10 14 15 14 11 11 13 11 13 17 18 16 12 9 9 9 9 13 11 7 6 5 4 4
5 4 4 4 4 3 6 2 4 5 8 8 8 9 10 10 11 10 10 10 10 9 9 7 5 3 7 9 11 10 11 11 11 13 15 18 18 16 11 9 10 12 12 7 5 5 4 4 4
6 3 3 4 4 3 4 2 4 3 5 7 9 9 9 10 12 11 12 11 11 11 10 10 9 7 4 5 6 7 8 10 10 12 12 15 17 16 10 8 9 12 8 6 6 4 4 4 4
3 3 4 5 6 4 3 1 3 7 10 12 13 12 12 12 11 10 11 11 11 11 11 11 10 9 7 4 3 4 5 7 7 8 10 13 13 13 10 6 7 8 7 6 6 5 4 3 4
5 6 4 3 6 5 3 5 9 14 16 18 17 16 15 14 13 12 13 13 13 13 13 12 12 10 8 4 2 3 5 6 6 7 7 10 10 11 8 6 6 7 7 8 8 5 5 3 3
8 7 6 5 6 5 7 13 13 18 18 17 18 18 18 17 18 16 15 15 14 13 13 12 11 11 9 6 4 3 4 4 5 4 4 6 7 9 8 8 6 6 6 7 7 5 4 3 3
6 4 4 5 6 6 6 8 12 12 17 19 19 18 18 18 17 16 16 14 14 14 14 12 12 11 10 9 5 3 1 1 2 3 3 3 4 5 5 6 6 6 5 5 5 6 6 4 2
5 7 7 6 3 3 4 3 8 11 16 20 19 17 17 17 16 14 15 15 14 13 12 12 12 11 10 9 6 5 3 4 6 6 5 4 3 4 4 4 5 5 4 5 5 5 4 5 4
6 9 6 3 1 2 5 5 5 8 14 18 17 17 16 16 16 14 13 12 12 12 12 11 12 11 10 9 7 5 3 3 4 5 8 7 5 5 5 4 4 5 5 5 5 5 5 4 4
7 6 6 6 5 4 6 5 5 8 12 16 16 16 15 15 14 13 11 10 10 11 11 11 11 11 10 9 7 5 3 0 2 4 6 6 5 5 5 5 4 4 4 5 4 5 6 5 4
9 7 6 8 7 2 4 6 4 7 11 13 15 15 14 13 12 11 11 11 11 11 11 11 11 10 10 8 8 7 6 5 4 3 4 4 4 3 4 4 4 3 2 2 2 3 3 4 4
6 6 5 2 2 2 5 4 1 7 11 12 13 13 13 13 12 11 11 10 9 10 10 10 9 8 9 8 8 8 8 6 6 7 5 5 4 3 3 4 4 4 2 2 2 1 2 2 3
5 4 1 4 1 3 3 2 3 12 17 17 16 15 15 14 13 12 12 10 8 8 8 9 8 8 8 9 8 9 8 8 8 8 7 5 4 4 4 4 3 3 2 1 1 1 1 2 2
5 2 6 5 3 3 3 4 8 17 19 18 17 16 15 14 13 12 11 10 8 8 7 8 8 8 7 8 7 7 7 7 7 6 7 6 5 4 4 3 3 2 2 2 2 1 0 2 2
8 7 5 5 4 3 3 3 6 11 14 15 16 15 14 13 13 11 10 10 9 9 9 8 8 8 8 8 7 6 6 6 6 5 5 4 3 3 3 2 2 2 2 1 1 1 2 2 3
6 5 4 5 4 3 2 3 7 8 11 12 13 13 11 10 10 9 9 9 9 10 9 10 9 9 8 7 7 6 6 5 5 5 4 3 3 2 2 2 1 1 1 1 1 2 1 3 4
Wind_Direction
307 293 134 92 52 57 80 70 79 51 53 67 88 94 96 90 112 136 139 147 140 148 154 152 149 146 143 140 138 136 131 127 123 120 116 113 111 110 108 105 101 98 93 91 93 101 111 114 113
319 316 110 62 80 81 45 116 95 113 128 120 93 94 86 68 88 109 124 144 143 148 151 153 152 149 146 144 142 139 135 134 131 128 126 122 118 114 112 111 108 104 101 99 100 108 117 120 118
290 225 92 71 111 143 170 194 166 185 133 117 90 62 77 106 114 121 141 142 142 146 151 156 153 151 149 147 144 141 140 139 137 135 133 129 125 121 118 117 115 111 107 106 108 115 121 125 126
71 58 61 73 123 181 176 205 187 115 82 78 91 61 49 124 138 133 140 143 143 147 152 158 156 155 153 151 148 146 146 145 142 140 138 135 132 127 125 125 122 118 114 112 114 121 129 135 138
93 72 48 39 70 103 169 187 107 88 78 82 90 83 35 35 118 134 144 147 146 149 155 162 161 160 159 158 156 155 153 152 149 147 145 143 141 138 133 129 126 122 119 116 116 123 136 146 151
47 57 55 8 354 22 34 53 83 96 110 111 104 104 87 117 129 146 150 151 150 154 159 166 167 167 167 166 165 163 162 160 158 158 157 155 154 151 146 142 137 133 130 126 122 124 137 148 155
76 62 43 1 356 16 28 50 71 89 106 127 122 103 127 159 151 154 153 152 154 157 161 167 172 175 176 176 175 173 171 169 168 168 168 167 166 164 160 156 154 152 152 152 148 144 148 156 160
112 82 42 20 4 342 344 39 59 79 91 123 116 126 159 190 164 152 152 154 158 162 167 170 174 178 180 182 182 180 179 179 177 176 176 175 175 174 170 168 169 171 173 178 183 187 189 191 191
87 74 70 11 350 310 335 53 60 52 71 50 67 138 162 164 152 144 149 154 164 169 175 176 178 181 182 182 187 184 184 185 185 183 182 179 178 178 178 181 183 186 189 195 203 213 220 228 242
90 108 165 193 199 290 340 31 76 67 64 54 68 94 137 152 155 157 162 169 176 180 185 184 184 184 182 187 188 186 186 187 187 186 185 181 182 185 188 193 195 197 200 206 215 224 233 240 256
123 153 169 188 205 191 20 14 38 107 76 142 153 154 156 159 165 173 177 179 184 186 186 189 189 187 185 189 184 187 186 186 188 188 187 185 188 196 202 201 205 205 207 210 222 236 243 250 255
65 135 164 187 197 182 172 129 59 79 143 199 170 163 163 168 180 188 189 190 187 185 192 191 191 190 190 188 186 186 186 188 191 195 194 190 193 201 201 197 201 203 208 210 218 229 244 254 256
72 104 182 206 205 204 119 71 90 23 358 31 105 135 135 133 137 157 214 206 196 192 194 192 192 192 191 187 186 187 190 192 196 197 201 199 196 197 191 194 201 209 214 214 214 220 232 244 252
192 210 257 313 328 16 65 46 49 3 1 36 55 75 91 84 64 50 44 52 34 213 212 201 195 192 188 188 189 190 192 195 196 199 201 201 201 195 190 193 201 213 218 218 214 213 215 219 208
257 306 355 16 37 25 78 46 16 344 16 38 37 49 56 48 46 45 38 38 29 15 359 333 222 200 194 192 191 190 192 193 196 199 200 201 203 200 195 200 204 211 217 219 211 211 200 185 169
16 31 8 358 33 23 85 100 316 339 39 39 42 51 55 51 51 49 45 38 30 25 14 3 355 279 221 211 200 193 192 192 198 199 200 202 206 205 197 200 205 206 208 207 187 178 168 166 155
32 23 353 349 20 14 91 175 263 325 57 49 42 45 49 46 42 41 43 40 29 22 15 8 1 351 314 258 228 214 198 196 199 198 197 203 207 206 194 196 198 193 189 186 182 166 157 160 167
353 13 10 5 9 18 56 301 336 13 40 45 39 35 31 32 26 28 32 33 29 23 18 12 3 357 349 324 270 242 224 209 203 200 196 196 201 199 188 188 186 175 169 169 167 156 147 152 162
72 72 38 14 7 8 42 43 39 39 41 36 29 25 21 16 10 17 23 24 21 16 12 8 1 353 353 346 309 247 229 220 213 208 196 192 188 183 178 177 172 167 166 167 159 145 145 144 136
49 51 14 332 348 13 69 60 54 46 41 36 28 19 13 10 9 11 15 16 15 10 4 359 352 345 342 328 291 246 229 222 216 210 199 193 185 177 176 165 164 162 157 158 156 147 147 154 144
18 38 337 313 347 10 92 61 32 26 28 28 23 15 9 8 5 5 5 5 5 3 357 351 343 337 331 325 309 283 228 199 190 195 195 195 173 163 161 165 160 157 156 171 174 162 154 166 178
323 319 316 310 357 321 53 101 18 356 11 13 8 4 357 359 355 356 357 356 356 352 350 346 340 335 332 329 322 295 242 215 202 187 182 173 163 148 159 167 163 159 161 173 189 173 159 160 175
302 300 302 290 189 33 14 105 13 357 4 355 352 351 345 349 344 345 347 345 345 345 345 342 339 338 337 338 333 316 276 235 201 175 170 170 171 164 160 166 159 164 172 179 189 182 180 175 176
329 349 26 44 70 55 353 89 38 9 347 338 340 339 338 338 334 333 336 339 340 341 342 342 343 344 346 349 356 0 354 349 171 174 173 166 163 155 149 159 164 166 174 180 193 192 187 185 187
17 42 33 22 25 24 43 76 59 355 346 335 330 331 333 331 329 329 334 338 339 342 342 341 344 349 354 2 15 21 33 53 76 105 133 135 136 131 141 146 139 144 162 165 164 175 187 188 193
12 69 103 113 302 324 38 70 160 359 345 336 332 333 337 338 337 336 335 333 335 337 339 341 346 356 4 14 23 28 37 51 60 67 80 90 98 104 123 124 123 125 128 127 119 135 173 193 210
19 11 150 150 15 52 51 52 316 344 347 345 342 341 342 340 342 342 339 339 340 340 343 348 356 8 14 18 26 32 38 50 59 63 67 69 74 89 87 91 94 89 89 89 100 133 183 196 219
39 13 52 64 63 35 16 24 341 331 334 335 338 341 341 345 346 348 352 354 355 354 353 355 5 14 16 21 26 34 34 42 48 55 60 59 55 62 69 69 65 63 69 63 64 47 270 210 224
7 19 54 73 83 94 24 355 320 309 314 320 326 329 333 340 345 350 353 1 5 7 7 4 5 9 10 11 16 25 29 36 41 44 44 48 49 50 55 53 44 30 28 33 76 241 224 226 234
46 25 72 100 60 57 79 307 289 289 298 306 314 320 325 331 338 344 350 2 9 12 12 12 9 7 2 3 11 19 21 27 31 29 22 24 30 24 32 41 43 14 359 359 329 291 252 242 246
Height
1517 1515 1514 1515 1518 1528 1529 1520 1514 1511 1511 1511 1510 1511 1515 1519 1523 1530 1527 1529 1532 1535 1537 1540 1542 1543 1544 1545 1546 1547 1548 1548 1549 1549 1550 1550 1550 1550 1550 1550 1551 1551 1551 1551 1552 1552 1553 1554 1554
1516 1515 1516 1516 1526 1540 1531 1517 1513 1510 1511 1512 1513 1514 1517 1520 1521 1523 1525 1530 1533 1535 1538 1540 1542 1544 1545 1546 1547 1547 1548 1549 1549 1550 1550 1551 1551 1552 1552 1552 1551 1551 1551 1552 1552 1553 1553 1554 1555
1515 1515 1516 1518 1528 1535 1528 1515 1510 1508 1509 1509 1514 1517 1520 1522 1523 1524 1526 1530 1533 1536 1538 1540 1542 1544 1545 1546 1547 1548 1548 1549 1550 1550 1551 1551 1552 1552 1553 1552 1552 1552 1552 1552 1552 1553 1554 1555 1556
1515 1516 1517 1522 1526 1520 1515 1510 1508 1508 1510 1511 1514 1519 1522 1524 1524 1525 1528 1532 1534 1536 1539 1541 1543 1544 1546 1547 1547 1548 1549 1549 1550 1551 1551 1552 1552 1553 1553 1553 1553 1553 1553 1553 1553 1553 1554 1555 1556
1515 1515 1521 1527 1522 1514 1510 1508 1508 1509 1512 1515 1515 1522 1525 1525 1525 1526 1529 1533 1535 1537 1539 1541 1543 1545 1546 1547 1547 1548 1549 1549 1550 1551 1551 1552 1552 1553 1553 1553 1553 1553 1554 1554 1554 1554 1555 1555 1556
1516 1517 1531 1534 1525 1514 1511 1509 1509 1511 1515 1517 1518 1523 1527 1527 1526 1529 1531 1534 1536 1537 1539 1541 1543 1544 1545 1546 1547 1548 1549 1549 1550 1551 1551 1552 1552 1553 1553 1553 1553 1554 1554 1554 1555 1555 1555 1556 1557
1519 1523 1531 1531 1528 1521 1514 1511 1511 1513 1515 1517 1518 1523 1528 1529 1529 1530 1532 1534 1536 1538 1539 1541 1542 1544 1545 1546 1546 1547 1548 1549 1550 1550 1551 1552 1552 1553 1553 1553 1553 1554 1554 1555 1555 1556 1556 1557 1558
1520 1524 1531 1532 1531 1525 1517 1514 1514 1514 1517 1519 1519 1522 1526 1528 1530 1531 1532 1534 1536 1538 1539 1540 1541 1543 1544 1545 1545 1546 1547 1548 1549 1550 1551 1551 1552 1553 1553 1553 1554 1554 1554 1555 1555 1556 1557 1558 1558
1521 1531 1538 1534 1532 1527 1519 1517 1518 1518 1518 1519 1519 1520 1523 1526 1529 1531 1532 1534 1535 1537 1538 1539 1540 1541 1542 1543 1544 1545 1546 1547 1548 1549 1549 1550 1551 1552 1553 1553 1553 1554 1554 1554 1555 1556 1557 1558 1559
1521 1534 1532 1528 1526 1525 1521 1519 1519 1521 1520 1521 1522 1523 1524 1526 1528 1529 1530 1531 1533 1534 1536 1538 1539 1540 1541 1542 1542 1543 1544 1545 1546 1547 1548 1549 1550 1551 1552 1553 1553 1553 1554 1554 1555 1556 1557 1558 1559
1521 1527 1526 1525 1523 1522 1522 1521 1520 1521 1523 1523 1522 1523 1525 1526 1527 1528 1529 1529 1530 1531 1533 1535 1536 1538 1539 1540 1541 1541 1542 1543 1544 1545 1547 1548 1549 1550 1551 1552 1552 1553 1554 1554 1555 1556 1557 1559 1559
1520 1522 1523 1522 1521 1521 1521 1522 1522 1522 1523 1523 1522 1523 1524 1526 1526 1527 1527 1528 1529 1530 1531 1532 1534 1535 1536 1537 1538 1539 1540 1541 1542 1543 1545 1546 1547 1548 1550 1551 1552 1553 1554 1555 1555 1556 1557 1558 1559
1521 1522 1521 1521 1520 1520 1520 1522 1523 1525 1525 1524 1523 1524 1525 1526 1527 1528 1528 1529 1529 1529 1529 1530 1531 1532 1533 1534 1535 1537 1538 1539 1540 1542 1543 1544 1545 1547 1548 1549 1551 1553 1554 1555 1555 1556 1557 1558 1558
1520 1520 1520 1520 1521 1522 1523 1525 1526 1529 1528 1526 1525 1526 1527 1528 1528 1528 1527 1528 1529 1529 1529 1529 1529 1529 1530 1531 1532 1534 1535 1536 1538 1539 1540 1542 1543 1545 1546 1548 1550 1552 1553 1554 1555 1556 1556 1557 1558
1519 1520 1522 1523 1522 1524 1525 1532 1532 1531 1530 1529 1529 1529 1529 1528 1528 1528 1528 1527 1527 1528 1528 1528 1528 1528 1528 1528 1529 1531 1532 1533 1534 1536 1537 1539 1541 1542 1544 1546 1547 1549 1551 1553 1554 1554 1555 1556 1557
1521 1527 1533 1528 1526 1526 1529 1540 1534 1532 1531 1531 1532 1531 1531 1530 1529 1529 1528 1527 1527 1526 1526 1527 1527 1527 1527 1527 1527 1528 1529 1530 1531 1532 1534 1535 1537 1539 1541 1543 1545 1547 1549 1551 1552 1553 1554 1555 1556
1533 1540 1538 1533 1530 1529 1531 1537 1533 1533 1533 1534 1535 1535 1534 1532 1531 1530 1528 1527 1526 1525 1525 1524 1525 1524 1524 1525 1526 1526 1526 1527 1527 1529 1530 1532 1534 1536 1538 1539 1542 1544 1546 1548 1550 1551 1552 1554 1555
1544 1542 1542 1540 1535 1533 1536 1537 1536 1538 1538 1540 1540 1538 1537 1535 1534 1532 1530 1528 1526 1525 1523 1522 1522 1521 1520 1520 1521 1523 1523 1524 1524 1525 1526 1528 1530 1532 1534 1536 1539 1541 1543 1545 1547 1549 1550 1551 1553
1540 1544 1547 1542 1538 1537 1540 1544 1545 1546 1545 1546 1546 1543 1541 1539 1537 1533 1531 1528 1526 1523 1521 1520 1518 1517 1517 1516 1517 1518 1518 1519 1520 1521 1523 1525 1527 1529 1531 1533 1535 1537 1539 1541 1544 1546 1547 1548 1550
1543 1548 1549 1544 1539 1539 1545 1552 1553 1553 1555 1554 1551 1548 1545 1541 1537 1534 1531 1528 1525 1523 1520 1518 1516 1514 1513 1513 1513 1513 1514 1515 1517 1518 1519 1520 1522 1524 1526 1529 1531 1534 1536 1538 1540 1542 1543 1545 1546
1546 1549 1548 1547 1543 1540 1545 1559 1560 1559 1558 1555 1554 1552 1548 1544 1540 1536 1532 1529 1525 1522 1519 1516 1513 1511 1509 1508 1508 1508 1509 1510 1511 1512 1513 1515 1517 1520 1522 1524 1527 1529 1532 1534 1536 1538 1539 1541 1543
1552 1544 1543 1543 1549 1556 1551 1569 1570 1564 1560 1557 1556 1552 1549 1545 1542 1538 1534 1529 1525 1521 1518 1514 1511 1508 1505 1504 1503 1503 1503 1504 1505 1507 1508 1510 1511 1512 1516 1519 1522 1525 1527 1529 1532 1533 1535 1537 1538
1549 1542 1541 1542 1548 1558 1557 1568 1576 1568 1567 1563 1559 1554 1551 1545 1543 1539 1535 1530 1525 1521 1517 1513 1509 1505 1502 1500 1499 1498 1498 1499 1500 1502 1503 1505 1507 1508 1511 1514 1517 1520 1523 1525 1527 1529 1530 1532 1533
1546 1544 1544 1550 1557 1571 1568 1573 1580 1578 1575 1568 1561 1557 1551 1546 1543 1539 1535 1531 1526 1521 1516 1511 1507 1503 1500 1497 1496 1494 1494 1494 1495 1497 1498 1500 1503 1504 1506 1509 1512 1515 1519 1521 1523 1525 1526 1527 1528
1553 1561 1571 1573 1579 1579 1572 1577 1585 1580 1575 1571 1565 1558 1552 1547 1543 1539 1534 1529 1525 1520 1515 1511 1506 1503 1499 1497 1494 1493 1491 1491 1492 1493 1495 1497 1499 1501 1503 1505 1507 1510 1514 1517 1519 1521 1523 1524 1525
1561 1567 1582 1587 1587 1582 1577 1582 1585 1578 1575 1570 1564 1558 1552 1547 1542 1537 1533 1528 1524 1519 1515 1511 1507 1503 1500 1497 1494 1493 1492 1491 1492 1493 1494 1496 1497 1499 1501 1503 1505 1507 1510 1513 1515 1517 1519 1520 1522
1567 1571 1570 1579 1579 1584 1584 1582 1579 1575 1572 1568 1563 1557 1552 1546 1542 1537 1532 1527 1523 1519 1515 1511 1508 1504 1501 1499 1496 1495 1493 1493 1493 1493 1494 1495 1497 1498 1499 1500 1503 1504 1507 1510 1512 1514 1516 1517 1519
1567 1569 1577 1583 1590 1595 1589 1588 1591 1581 1575 1569 1563 1558 1552 1547 1542 1537 1532 1527 1523 1520 1516 1512 1509 1507 1504 1501 1499 1498 1496 1496 1495 1496 1496 1497 1497 1498 1500 1501 1502 1503 1505 1507 1510 1512 1513 1514 1516
1574 1575 1579 1587 1589 1598 1598 1598 1588 1584 1578 1572 1566 1560 1554 1549 1543 1538 1533 1528 1525 1522 1518 1515 1512 1510 1507 1505 1503 1502 1501 1500 1499 1499 1499 1499 1499 1499 1500 1501 1502 1503 1505 1507 1509 1510 1512 1513 1515
1576 1578 1582 1592 1597 1598 1600 1601 1584 1582 1577 1572 1567 1561 1556 1551 1546 1541 1537 1532 1528 1524 1521 1518 1516 1513 1511 1509 1507 1506 1505 1504 1503 1503 1502 1502 1502 1502 1502 1503 1503 1504 1506 1507 1508 1510 1511 1512 1514